When you browse on this site, cookies collect data to enhance your experience and personalize the content and advertising you see.
Visit our Privacy Policy to learn more. By continuing to use the site, you agree to this use of cookies and data.
  • In Netherlands
  • List of Countries
  • For 7 days
  • Water Temperature
  • Weather Map
  • Weather Widgets
  • user-avatar
    Login

    Hourly Weather Iragi

    Today, 20 October, Sunday

    Time Temperature Precipitation Wind Pressure Humidity
    00:00 +13°C° 0 mm 1 mps 692 mmHg 78%
    01:00 +13°C° 0 mm 1 mps 692 mmHg 78%
    02:00 +13°C° 0 mm 1 mps 692 mmHg 77%
    03:00 +12°C° 0 mm 1 mps 692 mmHg 79%
    04:00 +11°C° 0 mm 0 mps 692 mmHg 79%
    05:00 +11°C° 0 mm 0 mps 692 mmHg 79%
    06:00 +11°C° 0 mm 0 mps 693 mmHg 79%
    07:00 +13°C° 0 mm 1 mps 693 mmHg 73%
    08:00 +15°C° 0 mm 1 mps 694 mmHg 68%
    09:00 +18°C° 0 mm 1 mps 694 mmHg 62%
    10:00 +17°C° 0 mm 2 mps 694 mmHg 60%
    11:00 +18°C° 0 mm 2 mps 694 mmHg 58%
    12:00 +19°C° 0 mm 3 mps 694 mmHg 56%
    13:00 +18°C° 0.1 mm 2 mps 694 mmHg 59%
    14:00 +18°C° 0.1 mm 2 mps 694 mmHg 61%
    15:00 +17°C° 0.1 mm 2 mps 694 mmHg 64%
    16:00 +15°C° 0 mm 1 mps 693 mmHg 72%
    17:00 +14°C° 0 mm 1 mps 693 mmHg 80%
    18:00 +11°C° 0 mm 0 mps 693 mmHg 88%
    19:00 +11°C° 0 mm 0 mps 693 mmHg 88%
    20:00 +11°C° 0 mm 0 mps 693 mmHg 88%
    21:00 +11°C° 0 mm 0 mps 693 mmHg 88%
    22:00 +11°C° 0 mm 0 mps 693 mmHg 87%
    23:00 +10°C° 0 mm 0 mps 693 mmHg 87%

    Tomorrow, 21 October, Monday

    Time Temperature Precipitation Wind Pressure Humidity
    00:00 +10°C° 0 mm 0 mps 693 mmHg 86%
    01:00 +10°C° 0 mm 0 mps 693 mmHg 86%
    02:00 +10°C° 0 mm 0 mps 693 mmHg 86%
    03:00 +10°C° 0 mm 0 mps 693 mmHg 86%
    04:00 +9°C° 0 mm 0 mps 693 mmHg 85%
    05:00 +9°C° 0 mm 0 mps 693 mmHg 84%
    06:00 +9°C° 0 mm 0 mps 693 mmHg 84%
    07:00 +12°C° 0 mm 1 mps 694 mmHg 78%
    08:00 +13°C° 0 mm 1 mps 694 mmHg 72%
    09:00 +15°C° 0 mm 1 mps 695 mmHg 67%
    10:00 +16°C° 0 mm 2 mps 695 mmHg 66%
    11:00 +16°C° 0 mm 2 mps 695 mmHg 65%
    12:00 +17°C° 0 mm 2 mps 695 mmHg 64%
    13:00 +16°C° 0 mm 2 mps 694 mmHg 68%
    14:00 +16°C° 0 mm 2 mps 694 mmHg 71%
    15:00 +15°C° 0 mm 2 mps 694 mmHg 74%
    16:00 +14°C° 0 mm 1 mps 694 mmHg 80%
    17:00 +13°C° 0 mm 1 mps 693 mmHg 85%
    18:00 +10°C° 0 mm 0 mps 693 mmHg 91%
    19:00 +10°C° 0 mm 0 mps 693 mmHg 91%
    20:00 +10°C° 0 mm 0 mps 693 mmHg 91%
    21:00 +10°C° 0 mm 0 mps 693 mmHg 91%
    22:00 +9°C° 0 mm 0 mps 693 mmHg 91%
    23:00 +9°C° 0 mm 0 mps 693 mmHg 90%

    Day after tomorrow, 22 October, Tuesday

    Time Temperature Precipitation Wind Pressure Humidity
    00:00 +9°C° 0 mm 0 mps 693 mmHg 90%
    01:00 +9°C° 0 mm 0 mps 692 mmHg 89%
    02:00 +9°C° 0 mm 0 mps 692 mmHg 88%
    03:00 +9°C° 0 mm 0 mps 692 mmHg 87%
    04:00 +9°C° 0 mm 0 mps 692 mmHg 87%
    05:00 +9°C° 0 mm 0 mps 692 mmHg 86%
    06:00 +8°C° 0 mm 0 mps 692 mmHg 85%
    07:00 +11°C° 0 mm 1 mps 692 mmHg 80%
    08:00 +13°C° 0 mm 1 mps 693 mmHg 75%
    09:00 +14°C° 0 mm 1 mps 693 mmHg 70%
    10:00 +15°C° 0 mm 2 mps 693 mmHg 70%
    11:00 +15°C° 0 mm 2 mps 693 mmHg 70%
    12:00 +16°C° 0 mm 2 mps 693 mmHg 69%
    13:00 +15°C° 0 mm 2 mps 693 mmHg 72%
    14:00 +15°C° 0 mm 2 mps 693 mmHg 74%
    15:00 +14°C° 0 mm 2 mps 692 mmHg 76%
    16:00 +13°C° 0 mm 1 mps 692 mmHg 80%
    17:00 +13°C° 0 mm 1 mps 692 mmHg 84%
    18:00 +11°C° 0 mm 0 mps 692 mmHg 89%
    19:00 +10°C° 0 mm 0 mps 692 mmHg 89%
    20:00 +10°C° 0 mm 0 mps 692 mmHg 90%
    21:00 +10°C° 0 mm 0 mps 692 mmHg 90%
    22:00 +9°C° 0 mm 0 mps 692 mmHg 91%
    23:00 +9°C° 0 mm 0 mps 692 mmHg 91%

    23 October, Wednesday

    Time Temperature Precipitation Wind Pressure Humidity
    00:00 +9°C° 0 mm 0 mps 692 mmHg 91%
    01:00 +8°C° 0 mm 0 mps 692 mmHg 91%
    02:00 +8°C° 0 mm 0 mps 691 mmHg 91%
    03:00 +8°C° 0 mm 0 mps 691 mmHg 90%
    04:00 +8°C° 0 mm 0 mps 691 mmHg 90%
    05:00 +8°C° 0 mm 0 mps 691 mmHg 90%
    06:00 +8°C° 0 mm 0 mps 691 mmHg 90%
    07:00 +10°C° 0 mm 1 mps 692 mmHg 85%
    08:00 +12°C° 0 mm 1 mps 692 mmHg 80%
    09:00 +13°C° 0 mm 1 mps 693 mmHg 75%
    10:00 +14°C° 0 mm 2 mps 693 mmHg 74%
    11:00 +14°C° 0 mm 2 mps 693 mmHg 74%
    12:00 +14°C° 0 mm 2 mps 693 mmHg 74%
    13:00 +14°C° 0 mm 2 mps 692 mmHg 76%
    14:00 +13°C° 0 mm 2 mps 692 mmHg 79%
    15:00 +12°C° 0 mm 2 mps 692 mmHg 82%
    16:00 +12°C° 0 mm 1 mps 692 mmHg 84%
    17:00 +11°C° 0 mm 1 mps 692 mmHg 85%
    18:00 +10°C° 0 mm 0 mps 692 mmHg 87%
    19:00 +9°C° 0 mm 0 mps 692 mmHg 88%
    20:00 +9°C° 0 mm 0 mps 692 mmHg 89%
    21:00 +8°C° 0 mm 0 mps 692 mmHg 89%
    22:00 +8°C° 0 mm 0 mps 692 mmHg 89%
    23:00 +8°C° 0 mm 0 mps 692 mmHg 89%

    24 October, Thursday

    Time Temperature Precipitation Wind Pressure Humidity
    00:00 +8°C° 0 mm 0 mps 692 mmHg 89%
    01:00 +8°C° 0 mm 0 mps 691 mmHg 88%
    02:00 +8°C° 0 mm 0 mps 691 mmHg 88%
    03:00 +8°C° 0 mm 0 mps 691 mmHg 87%
    04:00 +8°C° 0 mm 0 mps 691 mmHg 86%
    05:00 +7°C° 0 mm 0 mps 691 mmHg 86%
    06:00 +7°C° 0 mm 0 mps 691 mmHg 85%
    07:00 +10°C° 0 mm 1 mps 691 mmHg 79%
    08:00 +12°C° 0 mm 1 mps 692 mmHg 74%
    09:00 +13°C° 0 mm 2 mps 692 mmHg 68%
    10:00 +14°C° 0 mm 2 mps 692 mmHg 67%
    11:00 +15°C° 0 mm 2 mps 692 mmHg 66%
    12:00 +16°C° 0 mm 3 mps 692 mmHg 65%
    13:00 +14°C° 0 mm 3 mps 691 mmHg 68%
    14:00 +15°C° 0 mm 2 mps 691 mmHg 70%
    15:00 +14°C° 0 mm 2 mps 691 mmHg 72%
    16:00 +13°C° 0 mm 2 mps 691 mmHg 78%
    17:00 +12°C° 0 mm 1 mps 690 mmHg 84%
    18:00 +11°C° 0 mm 1 mps 690 mmHg 89%
    19:00 +10°C° 0 mm 1 mps 690 mmHg 88%
    20:00 +9°C° 0 mm 0 mps 690 mmHg 87%
    21:00 +9°C° 0 mm 0 mps 690 mmHg 86%
    22:00 +9°C° 0 mm 0 mps 690 mmHg 84%
    23:00 +9°C° 0 mm 0 mps 690 mmHg 83%

    25 October, Friday

    Time Temperature Precipitation Wind Pressure Humidity
    00:00 +10°C° 0 mm 1 mps 690 mmHg 81%
    01:00 +10°C° 0 mm 1 mps 689 mmHg 79%
    02:00 +10°C° 0 mm 1 mps 689 mmHg 76%
    03:00 +10°C° 0 mm 1 mps 689 mmHg 74%
    04:00 +10°C° 0 mm 1 mps 689 mmHg 72%
    05:00 +10°C° 0 mm 1 mps 689 mmHg 70%
    06:00 +10°C° 0 mm 1 mps 689 mmHg 68%
    07:00 +11°C° 0 mm 1 mps 690 mmHg 63%
    08:00 +13°C° 0 mm 1 mps 690 mmHg 59%
    09:00 +15°C° 0 mm 1 mps 690 mmHg 55%
    10:00 +16°C° 0 mm 2 mps 690 mmHg 55%
    11:00 +16°C° 0 mm 2 mps 690 mmHg 56%
    12:00 +17°C° 0 mm 2 mps 690 mmHg 56%
    13:00 +17°C° 0 mm 2 mps 690 mmHg 59%
    14:00 +17°C° 0 mm 2 mps 690 mmHg 63%
    15:00 +16°C° 0 mm 2 mps 690 mmHg 66%
    16:00 +15°C° 0 mm 2 mps 690 mmHg 74%
    17:00 +13°C° 0 mm 2 mps 690 mmHg 83%
    18:00 +12°C° 0 mm 1 mps 689 mmHg 91%
    19:00 +12°C° 0 mm 1 mps 689 mmHg 90%
    20:00 +12°C° 0 mm 1 mps 690 mmHg 88%
    21:00 +12°C° 0 mm 1 mps 690 mmHg 86%
    22:00 +11°C° 0 mm 1 mps 689 mmHg 84%
    23:00 +11°C° 0 mm 1 mps 689 mmHg 82%
    Show more